| time (UTC) | temp F | wind direction | speed knots | gust knots | rain 1hr in | rain 24hr in | rain mn in | humidity % | barometer mb |
| 20260831030518 | 73 | 22 | 1.7 | 7.8 | 0.00 | 0.00 | 0.00 | 42 | 1029.9 |
| 20260831030035 | 73 | 26 | 2.6 | 7.8 | 0.00 | 0.00 | 0.00 | 45 | 1030.0 |
| 20260831025518 | 73 | 26 | 1.7 | 7.0 | 0.00 | 0.00 | 0.00 | 45 | 1030.1 |
| 20260831025015 | 73 | 355 | 1.7 | 7.0 | 0.00 | 0.00 | 0.00 | 46 | 1030.2 |
| 20260831024536 | 73 | 355 | 1.7 | 5.2 | 0.00 | 0.00 | 0.00 | 47 | 1030.3 |
| 20260831024020 | 72 | 355 | 1.7 | 5.2 | 0.00 | 0.00 | 0.00 | 46 | 1030.5 |
| 20260831023520 | 72 | 355 | 2.6 | 5.2 | 0.00 | 0.00 | 0.00 | 46 | 1030.6 |
| 20260831023035 | 72 | 360 | 1.7 | 8.7 | 0.00 | 0.00 | 0.00 | 46 | 1030.7 |
| 20260831022516 | 72 | 17 | 2.6 | 8.7 | 0.00 | 0.00 | 0.00 | 45 | 1030.8 |
| 20260831022016 | 72 | 30 | 3.5 | 8.7 | 0.00 | 0.00 | 0.00 | 44 | 1031.0 |
| 20260831021534 | 71 | 302 | 2.6 | 7.8 | 0.00 | 0.00 | 0.00 | 47 | 1031.0 |
| 20260831021020 | 71 | 205 | 1.7 | 4.3 | 0.00 | 0.00 | 0.00 | 50 | 1031.0 |
| 20260831020516 | 70 | 205 | 1.7 | 4.3 | 0.00 | 0.00 | 0.00 | 51 | 1031.1 |
| 20260831020035 | 70 | 195 | 0.0 | 4.3 | 0.00 | 0.00 | 0.00 | 56 | 1031.1 |
| 20260831015518 | 69 | 195 | 0.0 | 4.3 | 0.00 | 0.00 | 0.00 | 56 | 1031.1 |
| 20260831015018 | 69 | 0 | 0.0 | 3.5 | 0.00 | 0.00 | 0.00 | 58 | 1031.2 |
| 20260831014537 | 68 | 192 | 0.9 | 3.5 | 0.00 | 0.00 | 0.00 | 58 | 1031.4 |
| 20260831014020 | 68 | 192 | 0.9 | 4.3 | 0.00 | 0.00 | 0.00 | 59 | 1031.4 |
| 20260831013519 | 67 | 191 | 0.9 | 4.3 | 0.00 | 0.00 | 0.00 | 61 | 1031.5 |
| 20260831013033 | 67 | 190 | 0.9 | 2.6 | 0.00 | 0.00 | 0.00 | 62 | 1031.5 |
| 20260831012519 | 66 | 190 | 0.0 | 3.5 | 0.00 | 0.00 | 0.00 | 64 | 1031.7 |
| 20260831012018 | 66 | 190 | 0.9 | 3.5 | 0.00 | 0.00 | 0.00 | 65 | 1031.7 |
| 20260831011543 | 65 | 190 | 1.7 | 3.5 | 0.00 | 0.00 | 0.00 | 66 | 1031.7 |
| 20260831011015 | 65 | 0 | 0.0 | 2.6 | 0.00 | 0.00 | 0.00 | 68 | 1031.6 |
| 20260831010519 | 64 | 0 | 0.0 | 3.5 | 0.00 | 0.00 | 0.00 | 68 | 1031.7 |
| 20260831010042 | 64 | 184 | 0.9 | 3.5 | 0.00 | 0.00 | 0.00 | 69 | 1031.8 |
| 20260831005520 | 63 | 185 | 0.9 | 3.5 | 0.00 | 0.00 | 0.00 | 70 | 1031.7 |
| 20260831005019 | 63 | 0 | 0.0 | 2.6 | 0.00 | 0.00 | 0.00 | 71 | 1031.8 |
| 20260831004532 | 62 | 184 | 0.0 | 2.6 | 0.00 | 0.00 | 0.00 | 72 | 1031.9 |
| 20260831004023 | 62 | 184 | 0.0 | 2.6 | 0.00 | 0.00 | 0.00 | 74 | 1031.8 |
| 20260831003520 | 61 | 184 | 0.9 | 2.6 | 0.00 | 0.00 | 0.00 | 75 | 1031.9 |
| 20260831003037 | 60 | 0 | 0.9 | 2.6 | 0.00 | 0.00 | 0.00 | 77 | 1031.9 |
| 20260831002518 | 60 | 184 | 0.9 | 2.6 | 0.00 | 0.00 | 0.00 | 79 | 1031.9 |
| 20260831002018 | 59 | 184 | 0.0 | 2.6 | 0.00 | 0.00 | 0.00 | 80 | 1031.9 |
| 20260831001537 | 59 | 184 | 0.0 | 2.6 | 0.00 | 0.00 | 0.00 | 82 | 1031.9 |
| 20260831001021 | 58 | 184 | 0.9 | 2.6 | 0.00 | 0.00 | 0.00 | 83 | 1031.9 |
| 20260831000519 | 58 | 0 | 0.9 | 2.6 | 0.00 | 0.00 | 0.00 | 84 | 1031.9 |
| 20260831000034 | 57 | 190 | 0.0 | 2.6 | 0.00 | 0.00 | 0.00 | 86 | 1032.0 |
| 20260830235519 | 57 | 0 | 0.0 | 1.7 | 0.00 | 0.00 | 0.00 | 87 | 1032.1 |
| 20260830235016 | 57 | 0 | 0.0 | 0.9 | 0.00 | 0.00 | 0.00 | 88 | 1032.0 |
| 20260830234541 | 56 | 0 | 0.0 | 1.7 | 0.00 | 0.00 | 0.00 | 88 | 1032.0 |
| 20260830234016 | 55 | 0 | 0.0 | 1.7 | 0.00 | 0.00 | 0.00 | 88 | 1032.1 |
| 20260830233518 | 55 | 0 | 0.0 | 1.7 | 0.00 | 0.00 | 0.00 | 89 | 1032.1 |
| 20260830233035 | 55 | 0 | 0.0 | 1.7 | 0.00 | 0.00 | 0.00 | 89 | 1032.2 |
| 20260830232516 | 54 | 0 | 0.0 | 1.7 | 0.00 | 0.00 | 0.00 | 89 | 1032.2 |
| 20260830232018 | 54 | 0 | 0.0 | 2.6 | 0.00 | 0.00 | 0.00 | 89 | 1032.2 |
| 20260830231536 | 54 | 193 | 0.0 | 2.6 | 0.00 | 0.00 | 0.00 | 89 | 1032.3 |
| 20260830231021 | 53 | 193 | 0.0 | 1.7 | 0.00 | 0.00 | 0.00 | 89 | 1032.2 |
| 20260830230519 | 53 | 0 | 0.0 | 2.6 | 0.00 | 0.00 | 0.00 | 89 | 1032.3 |
| 20260830230033 | 52 | 0 | 0.0 | 2.6 | 0.00 | 0.00 | 0.00 | 89 | 1032.2 |
| 20260830225516 | 52 | 0 | 0.0 | 0.0 | 0.00 | 0.00 | 0.00 | 90 | 1032.3 |
| 20260830225022 | 51 | 0 | 0.0 | 0.0 | 0.00 | 0.00 | 0.00 | 89 | 1032.3 |
| 20260830224535 | 50 | 0 | 0.0 | 0.0 | 0.00 | 0.00 | 0.00 | 89 | 1032.3 |
| 20260830224019 | 50 | 0 | 0.0 | 0.0 | 0.00 | 0.00 | 0.00 | 89 | 1032.2 |
| 20260830223517 | 49 | 0 | 0.0 | 0.0 | 0.00 | 0.00 | 0.00 | 89 | 1032.2 |
| 20260830223032 | 49 | 0 | 0.0 | 0.0 | 0.00 | 0.00 | 0.00 | 89 | 1032.2 |
| 20260830222516 | 48 | 0 | 0.0 | 0.0 | 0.00 | 0.00 | 0.00 | 89 | 1032.2 |
| 20260830222015 | 47 | 0 | 0.0 | 0.0 | 0.00 | 0.00 | 0.00 | 89 | 1032.3 |
| 20260830221545 | 46 | 0 | 0.0 | 0.0 | 0.00 | 0.00 | 0.00 | 88 | 1032.3 |
| 20260830221020 | 45 | 0 | 0.0 | 0.0 | 0.00 | 0.00 | 0.00 | 88 | 1032.2 |
| 20260830220516 | 44 | 0 | 0.0 | 0.0 | 0.00 | 0.00 | 0.00 | 88 | 1032.1 |
| 20260830220035 | 44 | 0 | 0.0 | 0.0 | 0.00 | 0.00 | 0.00 | 88 | 1032.1 |
| 20260830215522 | 43 | 0 | 0.0 | 0.0 | 0.00 | 0.00 | 0.00 | 87 | 1032.0 |
| 20260830215016 | 43 | 0 | 0.0 | 0.0 | 0.00 | 0.00 | 0.00 | 87 | 1031.9 |
| 20260830214532 | 43 | 0 | 0.0 | 0.0 | 0.00 | 0.00 | 0.00 | 87 | 1031.9 |
| 20260830214021 | 43 | 0 | 0.0 | 0.0 | 0.00 | 0.00 | 0.00 | 86 | 1031.9 |
| 20260830213520 | 43 | 0 | 0.0 | 0.0 | 0.00 | 0.00 | 0.00 | 87 | 1031.9 |
| 20260830213032 | 43 | 0 | 0.0 | 0.0 | 0.00 | 0.00 | 0.00 | 86 | 1032.0 |
| 20260830212519 | 43 | 0 | 0.0 | 0.0 | 0.00 | 0.00 | 0.00 | 86 | 1031.9 |
| 20260830212016 | 43 | 0 | 0.0 | 0.0 | 0.00 | 0.00 | 0.00 | 86 | 1031.8 |
| 20260830211531 | 43 | 0 | 0.0 | 0.0 | 0.00 | 0.00 | 0.00 | 86 | 1031.8 |
| 20260830211018 | 43 | 0 | 0.0 | 0.0 | 0.00 | 0.00 | 0.00 | 86 | 1031.8 |
| 20260830210516 | 43 | 0 | 0.0 | 0.0 | 0.00 | 0.00 | 0.00 | 86 | 1031.8 |
| 20260830210036 | 43 | 0 | 0.0 | 0.0 | 0.00 | 0.00 | 0.00 | 86 | 1031.9 |
| 20260830205515 | 43 | 0 | 0.0 | 0.0 | 0.00 | 0.00 | 0.00 | 86 | 1032.0 |
| 20260830205015 | 43 | 0 | 0.0 | 1.7 | 0.00 | 0.00 | 0.00 | 86 | 1032.1 |
| 20260830204533 | 43 | 0 | 0.0 | 1.7 | 0.00 | 0.00 | 0.00 | 86 | 1032.1 |
| 20260830204019 | 42 | 0 | 0.0 | 2.6 | 0.00 | 0.00 | 0.00 | 86 | 1031.9 |
| 20260830203519 | 42 | 207 | 0.9 | 2.6 | 0.00 | 0.00 | 0.00 | 86 | 1031.8 |
| 20260830203034 | 42 | 0 | 0.0 | 0.0 | 0.00 | 0.00 | 0.00 | 86 | 1031.6 |
| 20260830202519 | 43 | 0 | 0.0 | 0.0 | 0.00 | 0.00 | 0.00 | 85 | 1031.6 |
| 20260830202017 | 42 | 0 | 0.0 | 0.9 | 0.00 | 0.00 | 0.00 | 85 | 1031.7 |
| 20260830201533 | 43 | 0 | 0.0 | 1.7 | 0.00 | 0.00 | 0.00 | 85 | 1031.5 |
| 20260830201016 | 42 | 0 | 0.0 | 1.7 | 0.00 | 0.00 | 0.00 | 85 | 1031.5 |
| 20260830200515 | 42 | 0 | 0.0 | 0.0 | 0.00 | 0.00 | 0.00 | 85 | 1031.5 |
| 20260830200044 | 42 | 0 | 0.0 | 0.0 | 0.00 | 0.00 | 0.00 | 85 | 1031.6 |
| 20260830195518 | 42 | 0 | 0.0 | 0.0 | 0.00 | 0.00 | 0.00 | 85 | 1031.5 |
| 20260830195020 | 43 | 0 | 0.0 | 0.0 | 0.00 | 0.00 | 0.00 | 85 | 1031.5 |
| 20260830194537 | 42 | 0 | 0.0 | 0.0 | 0.00 | 0.00 | 0.00 | 85 | 1031.4 |
| 20260830194016 | 43 | 0 | 0.0 | 0.0 | 0.00 | 0.00 | 0.00 | 85 | 1031.4 |
| 20260830193518 | 43 | 0 | 0.0 | 0.0 | 0.00 | 0.00 | 0.00 | 85 | 1031.4 |
| 20260830193032 | 43 | 0 | 0.0 | 0.0 | 0.00 | 0.00 | 0.00 | 85 | 1031.3 |
| 20260830192522 | 43 | 0 | 0.0 | 0.0 | 0.00 | 0.00 | 0.00 | 85 | 1031.3 |
| 20260830192018 | 43 | 0 | 0.0 | 0.0 | 0.00 | 0.00 | 0.00 | 84 | 1031.2 |
| 20260830191534 | 43 | 0 | 0.0 | 0.0 | 0.00 | 0.00 | 0.00 | 84 | 1031.3 |
| 20260830191018 | 43 | 0 | 0.0 | 0.0 | 0.00 | 0.00 | 0.00 | 84 | 1031.3 |
| 20260830190515 | 43 | 0 | 0.0 | 0.0 | 0.00 | 0.00 | 0.00 | 85 | 1031.3 |
| 20260830190043 | 43 | 0 | 0.0 | 0.0 | 0.00 | 0.00 | 0.00 | 85 | 1031.4 |
| 20260830185519 | 43 | 0 | 0.0 | 0.0 | 0.00 | 0.00 | 0.00 | 84 | 1031.5 |
| 20260830185018 | 43 | 0 | 0.0 | 0.0 | 0.00 | 0.00 | 0.00 | 84 | 1031.5 |
| 20260830184533 | 43 | 0 | 0.0 | 0.0 | 0.00 | 0.00 | 0.00 | 84 | 1031.5 |
| 20260830184019 | 43 | 0 | 0.0 | 0.0 | 0.00 | 0.00 | 0.00 | 84 | 1031.5 |
| 20260830183520 | 43 | 0 | 0.0 | 0.0 | 0.00 | 0.00 | 0.00 | 84 | 1031.6 |
| 20260830183038 | 43 | 0 | 0.0 | 0.0 | 0.00 | 0.00 | 0.00 | 84 | 1031.5 |
| 20260830182519 | 44 | 0 | 0.0 | 0.0 | 0.00 | 0.00 | 0.00 | 84 | 1031.6 |
| 20260830182017 | 44 | 0 | 0.0 | 0.0 | 0.00 | 0.00 | 0.00 | 84 | 1031.7 |
| 20260830181534 | 44 | 0 | 0.0 | 0.0 | 0.00 | 0.00 | 0.00 | 84 | 1031.7 |
| 20260830181017 | 44 | 0 | 0.0 | 0.0 | 0.00 | 0.00 | 0.00 | 84 | 1031.7 |
| 20260830180517 | 44 | 0 | 0.0 | 0.0 | 0.00 | 0.00 | 0.00 | 84 | 1031.7 |
| 20260830180034 | 44 | 0 | 0.0 | 0.0 | 0.00 | 0.00 | 0.00 | 83 | 1031.9 |
| 20260830175515 | 44 | 0 | 0.0 | 0.0 | 0.00 | 0.00 | 0.00 | 84 | 1031.9 |
| 20260830175017 | 44 | 0 | 0.0 | 0.0 | 0.00 | 0.00 | 0.00 | 84 | 1031.9 |
| 20260830174541 | 44 | 0 | 0.0 | 0.0 | 0.00 | 0.00 | 0.00 | 84 | 1031.9 |
| 20260830174020 | 44 | 0 | 0.0 | 0.0 | 0.00 | 0.00 | 0.00 | 83 | 1031.9 |
| 20260830173518 | 44 | 0 | 0.0 | 0.0 | 0.00 | 0.00 | 0.00 | 83 | 1032.0 |
| 20260830173034 | 44 | 0 | 0.0 | 0.0 | 0.00 | 0.00 | 0.00 | 83 | 1032.0 |
| 20260830172520 | 44 | 0 | 0.0 | 0.0 | 0.00 | 0.00 | 0.00 | 83 | 1032.1 |
| 20260830172019 | 44 | 0 | 0.0 | 0.0 | 0.00 | 0.00 | 0.00 | 83 | 1032.2 |
| 20260830171534 | 44 | 0 | 0.0 | 0.0 | 0.00 | 0.00 | 0.00 | 83 | 1032.1 |
| 20260830171020 | 44 | 0 | 0.0 | 0.0 | 0.00 | 0.00 | 0.00 | 83 | 1032.3 |
| 20260830170520 | 44 | 0 | 0.0 | 0.0 | 0.00 | 0.00 | 0.00 | 83 | 1032.1 |
| 20260830170035 | 44 | 0 | 0.0 | 0.0 | 0.00 | 0.00 | 0.00 | 82 | 1032.2 |
| 20260830165518 | 44 | 0 | 0.0 | 0.0 | 0.00 | 0.00 | 0.00 | 82 | 1032.4 |
| 20260830165015 | 44 | 0 | 0.0 | 0.0 | 0.00 | 0.00 | 0.00 | 82 | 1032.5 |
| 20260830164534 | 44 | 0 | 0.0 | 0.0 | 0.00 | 0.00 | 0.00 | 82 | 1032.4 |
| 20260830164015 | 44 | 0 | 0.0 | 0.0 | 0.00 | 0.00 | 0.00 | 81 | 1032.5 |
| 20260830163515 | 44 | 0 | 0.0 | 0.0 | 0.00 | 0.00 | 0.00 | 81 | 1032.5 |
| 20260830163036 | 44 | 0 | 0.0 | 0.0 | 0.00 | 0.00 | 0.00 | 81 | 1032.6 |
| 20260830162519 | 44 | 0 | 0.0 | 0.0 | 0.00 | 0.00 | 0.00 | 81 | 1032.6 |
| 20260830162019 | 45 | 0 | 0.0 | 0.9 | 0.00 | 0.00 | 0.00 | 81 | 1032.7 |
| 20260830161532 | 45 | 0 | 0.0 | 0.9 | 0.00 | 0.00 | 0.00 | 81 | 1032.8 |
| 20260830161018 | 45 | 0 | 0.0 | 0.9 | 0.00 | 0.00 | 0.00 | 81 | 1032.8 |
| 20260830160517 | 45 | 0 | 0.0 | 0.0 | 0.00 | 0.00 | 0.00 | 81 | 1032.9 |
| 20260830160041 | 45 | 0 | 0.0 | 0.0 | 0.00 | 0.00 | 0.00 | 81 | 1032.9 |
| 20260830155516 | 45 | 0 | 0.0 | 0.0 | 0.00 | 0.00 | 0.00 | 81 | 1032.8 |
| 20260830155017 | 45 | 0 | 0.0 | 0.0 | 0.00 | 0.00 | 0.00 | 80 | 1032.9 |
| 20260830154532 | 45 | 0 | 0.0 | 0.0 | 0.00 | 0.00 | 0.00 | 80 | 1033.0 |
| 20260830154023 | 45 | 0 | 0.0 | 0.0 | 0.00 | 0.00 | 0.00 | 80 | 1032.8 |
| 20260830153521 | 45 | 0 | 0.0 | 0.0 | 0.00 | 0.00 | 0.00 | 80 | 1032.9 |
| 20260830153036 | 45 | 0 | 0.0 | 0.9 | 0.00 | 0.00 | 0.00 | 80 | 1033.0 |
| 20260830152519 | 46 | 0 | 0.0 | 0.9 | 0.00 | 0.00 | 0.00 | 80 | 1033.0 |
| 20260830152019 | 46 | 0 | 0.0 | 0.9 | 0.00 | 0.00 | 0.00 | 79 | 1033.0 |
| 20260830151534 | 46 | 0 | 0.0 | 0.0 | 0.00 | 0.00 | 0.00 | 79 | 1033.2 |
| 20260830151019 | 46 | 0 | 0.0 | 0.0 | 0.00 | 0.00 | 0.00 | 79 | 1033.2 |
| 20260830150517 | 46 | 0 | 0.0 | 0.0 | 0.00 | 0.00 | 0.00 | 79 | 1033.3 |
| 20260830150035 | 46 | 0 | 0.0 | 0.0 | 0.00 | 0.00 | 0.00 | 79 | 1033.4 |
| 20260830145516 | 46 | 0 | 0.0 | 0.0 | 0.00 | 0.00 | 0.00 | 79 | 1033.3 |
| 20260830145016 | 47 | 0 | 0.0 | 0.0 | 0.00 | 0.00 | 0.00 | 79 | 1033.3 |
| 20260830144533 | 47 | 0 | 0.0 | 0.0 | 0.00 | 0.00 | 0.00 | 79 | 1033.5 |
| 20260830144018 | 47 | 0 | 0.0 | 0.0 | 0.00 | 0.00 | 0.00 | 79 | 1033.4 |
| 20260830143524 | 47 | 0 | 0.0 | 0.0 | 0.00 | 0.00 | 0.00 | 79 | 1033.4 |
| 20260830143036 | 47 | 0 | 0.0 | 0.0 | 0.00 | 0.00 | 0.00 | 79 | 1033.4 |
| 20260830142521 | 47 | 0 | 0.0 | 0.9 | 0.00 | 0.00 | 0.00 | 78 | 1033.4 |
| 20260830142019 | 47 | 0 | 0.0 | 0.9 | 0.00 | 0.00 | 0.00 | 78 | 1033.5 |
| 20260830141535 | 47 | 0 | 0.0 | 0.9 | 0.00 | 0.00 | 0.00 | 78 | 1033.8 |
| 20260830141018 | 47 | 0 | 0.0 | 0.9 | 0.00 | 0.00 | 0.00 | 78 | 1033.8 |
| 20260830140518 | 48 | 0 | 0.0 | 0.9 | 0.00 | 0.00 | 0.00 | 77 | 1033.9 |
| 20260830140033 | 48 | 0 | 0.0 | 0.0 | 0.00 | 0.00 | 0.00 | 77 | 1033.9 |
| 20260830135516 | 48 | 0 | 0.0 | 0.9 | 0.00 | 0.00 | 0.00 | 77 | 1034.0 |
| 20260830135020 | 48 | 0 | 0.0 | 0.9 | 0.00 | 0.00 | 0.00 | 76 | 1034.1 |
| 20260830134540 | 48 | 0 | 0.0 | 0.0 | 0.00 | 0.00 | 0.00 | 76 | 1034.1 |
| 20260830134019 | 48 | 0 | 0.0 | 0.0 | 0.00 | 0.00 | 0.00 | 76 | 1034.0 |
| 20260830133517 | 48 | 0 | 0.0 | 0.0 | 0.00 | 0.00 | 0.00 | 76 | 1034.1 |
| 20260830133034 | 49 | 0 | 0.0 | 0.0 | 0.00 | 0.00 | 0.00 | 76 | 1033.9 |
| 20260830132516 | 49 | 0 | 0.0 | 0.0 | 0.00 | 0.00 | 0.00 | 75 | 1033.9 |
| 20260830132015 | 49 | 0 | 0.0 | 0.0 | 0.00 | 0.00 | 0.00 | 75 | 1033.9 |
| 20260830131534 | 49 | 0 | 0.0 | 0.0 | 0.00 | 0.00 | 0.00 | 75 | 1034.0 |
| 20260830131019 | 49 | 0 | 0.0 | 0.0 | 0.00 | 0.00 | 0.00 | 75 | 1034.0 |
| 20260830130518 | 49 | 0 | 0.0 | 0.0 | 0.00 | 0.00 | 0.00 | 75 | 1034.0 |
| 20260830130041 | 49 | 0 | 0.0 | 0.9 | 0.00 | 0.00 | 0.00 | 75 | 1033.8 |
| 20260830125519 | 50 | 0 | 0.0 | 0.9 | 0.00 | 0.00 | 0.00 | 74 | 1033.9 |
| 20260830125019 | 50 | 0 | 0.0 | 0.9 | 0.00 | 0.00 | 0.00 | 74 | 1033.8 |
| 20260830124533 | 50 | 0 | 0.0 | 0.9 | 0.00 | 0.00 | 0.00 | 74 | 1033.8 |
| 20260830124017 | 50 | 0 | 0.0 | 0.9 | 0.00 | 0.00 | 0.00 | 74 | 1033.8 |
| 20260830123518 | 50 | 0 | 0.0 | 0.0 | 0.00 | 0.00 | 0.00 | 73 | 1033.8 |
| 20260830123034 | 50 | 0 | 0.0 | 0.0 | 0.00 | 0.00 | 0.00 | 73 | 1033.8 |
| 20260830122515 | 51 | 0 | 0.0 | 0.0 | 0.00 | 0.00 | 0.00 | 73 | 1033.7 |
| 20260830122016 | 51 | 0 | 0.0 | 0.0 | 0.00 | 0.00 | 0.00 | 73 | 1033.6 |
| 20260830121537 | 51 | 0 | 0.0 | 0.0 | 0.00 | 0.00 | 0.00 | 73 | 1033.7 |
| 20260830121017 | 51 | 0 | 0.0 | 0.0 | 0.00 | 0.00 | 0.00 | 73 | 1033.8 |
| 20260830120517 | 51 | 0 | 0.0 | 0.0 | 0.00 | 0.00 | 0.00 | 73 | 1033.7 |
| 20260830120035 | 52 | 0 | 0.0 | 0.0 | 0.00 | 0.00 | 0.00 | 73 | 1033.7 |
| 20260830115519 | 52 | 0 | 0.0 | 0.9 | 0.00 | 0.00 | 0.00 | 73 | 1033.7 |
| 20260830115022 | 52 | 0 | 0.0 | 0.9 | 0.00 | 0.00 | 0.00 | 72 | 1033.5 |
| 20260830114534 | 52 | 0 | 0.0 | 0.0 | 0.00 | 0.00 | 0.00 | 72 | 1033.4 |
| 20260830114023 | 52 | 0 | 0.0 | 1.7 | 0.00 | 0.00 | 0.00 | 72 | 1033.5 |
| 20260830113518 | 52 | 0 | 0.0 | 1.7 | 0.00 | 0.00 | 0.00 | 72 | 1033.4 |
| 20260830113031 | 52 | 0 | 0.0 | 0.9 | 0.00 | 0.00 | 0.00 | 72 | 1033.4 |
| 20260830112515 | 52 | 0 | 0.0 | 0.9 | 0.00 | 0.00 | 0.00 | 71 | 1033.4 |
| 20260830112015 | 53 | 0 | 0.0 | 0.9 | 0.00 | 0.00 | 0.00 | 71 | 1033.4 |
| 20260830111533 | 53 | 0 | 0.0 | 0.0 | 0.00 | 0.00 | 0.00 | 71 | 1033.4 |
| 20260830111018 | 53 | 0 | 0.0 | 0.0 | 0.00 | 0.00 | 0.00 | 71 | 1033.3 |
| 20260830110517 | 53 | 0 | 0.0 | 0.0 | 0.00 | 0.00 | 0.00 | 71 | 1033.2 |
| 20260830110038 | 54 | 0 | 0.0 | 0.0 | 0.00 | 0.00 | 0.00 | 71 | 1033.2 |
| 20260830105519 | 54 | 0 | 0.0 | 1.7 | 0.00 | 0.00 | 0.00 | 71 | 1033.1 |
| 20260830105020 | 54 | 0 | 0.0 | 1.7 | 0.00 | 0.00 | 0.00 | 71 | 1033.0 |
| 20260830104553 | 54 | 0 | 0.0 | 0.0 | 0.00 | 0.00 | 0.00 | 70 | 1033.0 |
| 20260830104019 | 54 | 0 | 0.0 | 0.0 | 0.00 | 0.00 | 0.00 | 70 | 1032.9 |
| 20260830103521 | 55 | 0 | 0.0 | 0.0 | 0.00 | 0.00 | 0.00 | 70 | 1033.0 |
| 20260830103033 | 55 | 0 | 0.0 | 0.0 | 0.00 | 0.00 | 0.00 | 70 | 1033.0 |
| 20260830102516 | 55 | 0 | 0.0 | 1.7 | 0.00 | 0.00 | 0.00 | 69 | 1032.9 |
| 20260830102018 | 55 | 0 | 0.0 | 1.7 | 0.00 | 0.00 | 0.00 | 69 | 1032.9 |
| 20260830101533 | 55 | 0 | 0.0 | 1.7 | 0.00 | 0.00 | 0.00 | 69 | 1032.9 |
| 20260830101019 | 56 | 0 | 0.0 | 1.7 | 0.00 | 0.00 | 0.00 | 68 | 1032.9 |
| 20260830100519 | 56 | 0 | 0.0 | 1.7 | 0.00 | 0.00 | 0.00 | 67 | 1032.9 |
| 20260830100030 | 56 | 0 | 0.0 | 0.0 | 0.00 | 0.00 | 0.00 | 66 | 1032.8 |
| 20260830095519 | 56 | 0 | 0.0 | 0.0 | 0.00 | 0.00 | 0.00 | 66 | 1032.6 |
| 20260830095020 | 57 | 0 | 0.0 | 0.0 | 0.00 | 0.00 | 0.00 | 65 | 1032.5 |
| 20260830094535 | 57 | 0 | 0.0 | 0.0 | 0.00 | 0.00 | 0.00 | 65 | 1032.5 |
| 20260830094018 | 57 | 0 | 0.0 | 0.0 | 0.00 | 0.00 | 0.00 | 64 | 1032.5 |
| 20260830093517 | 58 | 0 | 0.0 | 0.0 | 0.00 | 0.00 | 0.00 | 64 | 1032.5 |
| 20260830093040 | 58 | 0 | 0.0 | 0.0 | 0.00 | 0.00 | 0.00 | 63 | 1032.3 |
| 20260830092517 | 59 | 0 | 0.0 | 0.0 | 0.00 | 0.00 | 0.00 | 63 | 1032.4 |
| 20260830092018 | 59 | 0 | 0.0 | 0.0 | 0.00 | 0.00 | 0.00 | 62 | 1032.4 |
| 20260830091535 | 59 | 0 | 0.0 | 0.0 | 0.00 | 0.00 | 0.00 | 62 | 1032.6 |
| 20260830091019 | 60 | 0 | 0.0 | 0.0 | 0.00 | 0.00 | 0.00 | 62 | 1032.6 |
| 20260830090521 | 61 | 0 | 0.0 | 0.0 | 0.00 | 0.00 | 0.00 | 61 | 1032.6 |
| 20260830090035 | 61 | 0 | 0.0 | 0.0 | 0.00 | 0.00 | 0.00 | 61 | 1032.4 |
| 20260830085517 | 62 | 0 | 0.0 | 0.0 | 0.00 | 0.00 | 0.00 | 60 | 1032.4 |
| 20260830085018 | 62 | 0 | 0.0 | 0.0 | 0.00 | 0.00 | 0.00 | 60 | 1032.4 |
| 20260830084535 | 63 | 0 | 0.0 | 0.0 | 0.00 | 0.00 | 0.00 | 59 | 1032.3 |
| 20260830084018 | 63 | 0 | 0.0 | 1.7 | 0.00 | 0.00 | 0.00 | 58 | 1032.4 |
| 20260830083516 | 64 | 0 | 0.0 | 1.7 | 0.00 | 0.00 | 0.00 | 58 | 1032.5 |
| 20260830083051 | 64 | 0 | 0.0 | 1.7 | 0.00 | 0.00 | 0.00 | 58 | 1032.4 |
| 20260830082519 | 65 | 0 | 0.0 | 0.9 | 0.00 | 0.00 | 0.00 | 57 | 1032.3 |
| 20260830082019 | 65 | 0 | 0.0 | 1.7 | 0.00 | 0.00 | 0.00 | 56 | 1032.4 |
| 20260830081535 | 66 | 0 | 0.0 | 2.6 | 0.00 | 0.00 | 0.00 | 56 | 1032.4 |
| 20260830081017 | 66 | 0 | 0.0 | 2.6 | 0.00 | 0.00 | 0.00 | 55 | 1032.4 |
| 20260830080518 | 67 | 184 | 0.0 | 2.6 | 0.00 | 0.00 | 0.00 | 54 | 1032.4 |
| 20260830080035 | 67 | 184 | 0.0 | 2.6 | 0.00 | 0.00 | 0.00 | 54 | 1032.3 |
| 20260830075517 | 68 | 188 | 0.9 | 2.6 | 0.00 | 0.00 | 0.00 | 53 | 1032.4 |
| 20260830075016 | 68 | 0 | 0.0 | 2.6 | 0.00 | 0.00 | 0.00 | 53 | 1032.3 |
| 20260830074536 | 68 | 0 | 0.0 | 2.6 | 0.00 | 0.00 | 0.00 | 53 | 1032.3 |
| 20260830074020 | 68 | 184 | 0.0 | 2.6 | 0.00 | 0.00 | 0.00 | 52 | 1032.2 |
| 20260830073516 | 68 | 0 | 0.0 | 2.6 | 0.00 | 0.00 | 0.00 | 52 | 1032.3 |
| 20260830073033 | 68 | 184 | 0.0 | 3.5 | 0.00 | 0.00 | 0.00 | 51 | 1032.3 |
| 20260830072521 | 69 | 184 | 0.9 | 4.3 | 0.00 | 0.00 | 0.00 | 50 | 1032.4 |
| 20260830072019 | 69 | 184 | 0.9 | 4.3 | 0.00 | 0.00 | 0.00 | 50 | 1032.4 |
| 20260830071533 | 69 | 184 | 0.9 | 3.5 | 0.00 | 0.00 | 0.00 | 49 | 1032.3 |
| 20260830071017 | 69 | 184 | 0.9 | 4.3 | 0.00 | 0.00 | 0.00 | 49 | 1032.3 |
| 20260830070516 | 70 | 184 | 0.9 | 4.3 | 0.00 | 0.00 | 0.00 | 49 | 1032.4 |
| 20260830070035 | 70 | 185 | 0.9 | 4.3 | 0.00 | 0.00 | 0.00 | 49 | 1032.3 |
| 20260830065516 | 70 | 186 | 0.9 | 3.5 | 0.00 | 0.00 | 0.00 | 49 | 1032.3 |
| 20260830065018 | 70 | 0 | 0.9 | 3.5 | 0.00 | 0.00 | 0.00 | 48 | 1032.4 |
| 20260830064539 | 70 | 187 | 0.9 | 3.5 | 0.00 | 0.00 | 0.00 | 48 | 1032.5 |
| 20260830064018 | 70 | 186 | 0.9 | 6.1 | 0.00 | 0.00 | 0.00 | 49 | 1032.6 |
| 20260830063521 | 70 | 186 | 0.9 | 6.1 | 0.00 | 0.00 | 0.00 | 50 | 1032.6 |
| 20260830063034 | 71 | 188 | 1.7 | 6.1 | 0.00 | 0.00 | 0.00 | 49 | 1032.7 |
| 20260830062519 | 71 | 184 | 1.7 | 4.3 | 0.00 | 0.00 | 0.00 | 49 | 1032.7 |
| 20260830062016 | 71 | 183 | 0.9 | 4.3 | 0.00 | 0.00 | 0.00 | 49 | 1032.6 |
| 20260830061535 | 71 | 184 | 0.9 | 4.3 | 0.00 | 0.00 | 0.00 | 49 | 1032.8 |
| 20260830061022 | 71 | 183 | 0.9 | 4.3 | 0.00 | 0.00 | 0.00 | 48 | 1032.8 |
| 20260830060518 | 71 | 0 | 0.9 | 6.1 | 0.00 | 0.00 | 0.00 | 48 | 1033.0 |
| 20260830060044 | 71 | 182 | 1.7 | 6.1 | 0.00 | 0.00 | 0.00 | 48 | 1033.1 |
| 20260830055518 | 71 | 173 | 0.9 | 5.2 | 0.00 | 0.00 | 0.00 | 48 | 1033.0 |
| 20260830055017 | 71 | 173 | 0.9 | 5.2 | 0.00 | 0.00 | 0.00 | 48 | 1032.9 |
| 20260830054540 | 71 | 173 | 1.7 | 5.2 | 0.00 | 0.00 | 0.00 | 48 | 1032.9 |
| 20260830054019 | 71 | 173 | 0.9 | 4.3 | 0.00 | 0.00 | 0.00 | 47 | 1033.0 |
| 20260830053519 | 71 | 171 | 0.9 | 5.2 | 0.00 | 0.00 | 0.00 | 47 | 1033.1 |
| 20260830053036 | 71 | 0 | 0.9 | 5.2 | 0.00 | 0.00 | 0.00 | 47 | 1033.2 |
| 20260830052518 | 71 | 168 | 0.9 | 5.2 | 0.00 | 0.00 | 0.00 | 47 | 1033.2 |
| 20260830052015 | 71 | 168 | 1.7 | 6.1 | 0.00 | 0.00 | 0.00 | 47 | 1033.2 |
| 20260830051534 | 71 | 167 | 1.7 | 6.1 | 0.00 | 0.00 | 0.00 | 47 | 1033.2 |
| 20260830051018 | 71 | 157 | 0.9 | 5.2 | 0.00 | 0.00 | 0.00 | 48 | 1033.2 |
| 20260830050516 | 71 | 156 | 1.7 | 5.2 | 0.00 | 0.00 | 0.00 | 47 | 1033.4 |
| 20260830050038 | 71 | 153 | 0.9 | 5.2 | 0.00 | 0.00 | 0.00 | 46 | 1033.5 |
| 20260830045521 | 71 | 153 | 1.7 | 5.2 | 0.00 | 0.00 | 0.00 | 47 | 1033.4 |
| 20260830045020 | 71 | 151 | 0.9 | 5.2 | 0.00 | 0.00 | 0.00 | 47 | 1033.4 |
| 20260830044531 | 71 | 150 | 0.9 | 6.1 | 0.00 | 0.00 | 0.00 | 47 | 1033.4 |
| 20260830044018 | 71 | 150 | 0.9 | 6.1 | 0.00 | 0.00 | 0.00 | 47 | 1033.4 |
| 20260830043520 | 71 | 119 | 2.6 | 5.2 | 0.00 | 0.00 | 0.00 | 47 | 1033.4 |
| 20260830043037 | 71 | 96 | 2.6 | 5.2 | 0.00 | 0.00 | 0.00 | 47 | 1033.5 |
| 20260830042517 | 71 | 86 | 0.9 | 6.1 | 0.00 | 0.00 | 0.00 | 46 | 1033.6 |
| 20260830042019 | 71 | 86 | 1.7 | 6.1 | 0.00 | 0.00 | 0.00 | 46 | 1033.7 |
| 20260830041534 | 71 | 90 | 1.7 | 6.1 | 0.00 | 0.00 | 0.00 | 46 | 1033.8 |
| 20260830041015 | 71 | 0 | 0.9 | 3.5 | 0.00 | 0.00 | 0.00 | 47 | 1033.8 |
| 20260830040520 | 71 | 101 | 0.9 | 3.5 | 0.00 | 0.00 | 0.00 | 47 | 1033.8 |
| 20260830040043 | 71 | 98 | 0.9 | 5.2 | 0.00 | 0.00 | 0.00 | 48 | 1033.7 |
| 20260830035520 | 70 | 89 | 0.9 | 5.2 | 0.00 | 0.00 | 0.00 | 46 | 1034.0 |
| 20260830035020 | 70 | 86 | 1.7 | 5.2 | 0.00 | 0.00 | 0.00 | 46 | 1034.1 |
| 20260830034541 | 70 | 0 | 0.0 | 5.2 | 0.00 | 0.00 | 0.00 | 47 | 1034.1 |
| 20260830034019 | 70 | 86 | 1.7 | 4.3 | 0.00 | 0.00 | 0.00 | 47 | 1034.1 |
| 20260830033516 | 69 | 88 | 0.9 | 3.5 | 0.00 | 0.00 | 0.00 | 48 | 1034.3 |
| 20260830033037 | 69 | 88 | 0.9 | 5.2 | 0.00 | 0.00 | 0.00 | 48 | 1034.3 |
| 20260830032519 | 69 | 88 | 0.9 | 5.2 | 0.00 | 0.00 | 0.00 | 48 | 1034.4 |
| 20260830032016 | 69 | 84 | 0.0 | 6.1 | 0.00 | 0.00 | 0.00 | 48 | 1034.5 |
| 20260830031534 | 69 | 84 | 1.7 | 6.1 | 0.00 | 0.00 | 0.00 | 49 | 1034.5 |
| 20260830031020 | 69 | 84 | 0.9 | 6.1 | 0.00 | 0.00 | 0.00 | 49 | 1034.6 |